loading
|
Showing default

CONTECSAT-1, 59117

Orbit data source: Space-Track

CONTECSAT-1, 59117 is a payload satellite owned by CONTEC (KR) in SSO that was launched on Mon, 04 Mar 2024 UTC via an FALCON 9 launch vehicle from the Air Force Western Test Range (AFWTR). Payloads include a variety of satellites, spacecraft, and rockets equipped with specific instruments for various scientific and technological missions. These include communications satellites like Starlink; space stations such as the ISS; scientific satellites like the Hubble; Earth observation satellites from companies like Planet Labs, Umbra, and HawkEye 360; GPS; miniature CubeSats for education and research; and military/defense satellites.

Loading next visibility...
Loading greatness...
CONTECSAT-1 details
Identifier
59117, 2024-043V
Orbit
SSO
Last TLE update7 hours ago
Origin
Flag of KRCONTEC (KR / SKOR)
ManufacturerCONTEC
Mission statusOperational
MissionCommercial Imaging
Bus & MotorCUBESAT 16U, Unknown motor
Mass~20 kg wet, ~20 kg dry
Launch date (UTC)
2024-03-04 (7 months ago)
Launch vehicle
FALCON 9
Launch site
Air Force Western Test Range (AFWTR)
Object type
Payload
Rocket body
Debris
Radar Cross SectionMedium (>0.1 m² and <1 m²)

Expand to show TLE details & history

TLE from 7 hours ago
0 CONTECSAT-1
1 59117U 24043V   24261.60056641  .00033896  00000-0  15787-2 0  9998
2 59117  97.4921  24.5929 0014048 330.8506  29.1944 15.19743581 29835
Epoch: 2024-09-17T14:24Z
Definitive object data (Epoch: 2024-09-17T14:24:48.937Z)
Latitude0.00004°
Longitude171.3761°
Altitude501.261 km
Speed7.618 km/s
True Right ascension01h 38m 22s
True Declination0° 00' 00"
Sunlit
Object was in full shadow at TLE epoch
Predictive object data (real-time)
Latitude41.09366°
Longitude-1.78738°
Altitude522.059 km
Speed7.601 km/s
Apparent Right ascension13h 10m 42s
Apparent Declination54° 16' 57"
Sunlit
Object is in daylight
Predictive observer data (real-time)
Local Sidereal Time14:09:15
Azimuth330.454° NNW
Elevation72.591°
Doppler factor1
Orbital elements
Apogee513.252 km
Perigee493.917 km
Semi-major axis6,881.722 km
Eccentricity0.0014048
Inclination97.4921°
RAAN24.5929°
Arg. of periapsis330.8506°
True anomaly29.27304°
Mean anomaly29.1944°
Eccentric anomaly29.23371°
Mean motion3.80187 °/min
BSTAR0.0015787
Period94.69 mins
No data available

CONTECSAT-1 Visibility forecast

Observer location: 39.9160978°, -105.1181434

CONTECSAT-1 is not visible in the next 10 days
Span
Click to sort rows by Start time (UTC) header in descending order
Start Az.
Max El. time (UTC)
Max El. Az.
Max El.
End time (UTC)
End Az.